TimeEDT,TemperatureF,Dew PointF,Humidity,Sea Level PressureIn,VisibilityMPH,Wind Direction,Wind SpeedMPH,Gust SpeedMPH,PrecipitationIn,Events,Conditions,WindDirDegrees,DateUTC
12:25 AM,55.4,55.4,100,29.92,4.0,Calm,Calm,-,0.01,,Mostly Cloudy,0,2012-10-06 04:25:00
12:34 AM,57.2,55.4,94,29.91,2.5,Calm,Calm,-,0.01,,Scattered Clouds,0,2012-10-06 04:34:00
12:49 AM,55.4,55.4,100,29.91,1.8,Calm,Calm,-,0.01,,Mostly Cloudy,0,2012-10-06 04:49:00
12:53 AM,55.9,55.0,97,29.91,2.0,Calm,Calm,-,0.01,,Scattered Clouds,0,2012-10-06 04:53:00
12:57 AM,53.6,53.6,100,29.91,1.0,Calm,Calm,-,N/A,,Mist,0,2012-10-06 04:57:00
1:04 AM,55.4,53.6,94,29.91,0.5,Calm,Calm,-,N/A,Fog,Fog,0,2012-10-06 05:04:00
1:11 AM,55.4,53.6,94,29.91,0.2,Calm,Calm,-,N/A,Fog,Fog,0,2012-10-06 05:11:00
1:23 AM,55.4,53.6,94,29.90,0.8,Calm,Calm,-,N/A,,Mist,0,2012-10-06 05:23:00
1:28 AM,55.4,53.6,94,29.90,1.2,Calm,Calm,-,N/A,,Scattered Clouds,0,2012-10-06 05:28:00
1:40 AM,55.4,53.6,94,29.90,3.0,Calm,Calm,-,N/A,,Partly Cloudy,0,2012-10-06 05:40:00
1:53 AM,55.0,54.0,96,29.90,3.0,Calm,Calm,-,N/A,,Clear,0,2012-10-06 05:53:00
2:08 AM,55.4,53.6,94,29.90,2.0,Calm,Calm,-,N/A,,Partly Cloudy,0,2012-10-06 06:08:00
2:13 AM,55.4,53.6,94,29.90,1.0,Calm,Calm,-,N/A,,Mist,0,2012-10-06 06:13:00
2:18 AM,53.6,53.6,100,29.90,1.0,Calm,Calm,-,N/A,,Mist,0,2012-10-06 06:18:00
2:27 AM,53.6,53.6,100,29.89,2.0,Calm,Calm,-,N/A,,Partly Cloudy,0,2012-10-06 06:27:00
2:50 AM,53.6,51.8,94,29.89,3.0,Calm,Calm,-,N/A,,Clear,0,2012-10-06 06:50:00
2:53 AM,54.0,53.1,97,29.89,1.8,Calm,Calm,-,N/A,,Clear,0,2012-10-06 06:53:00
3:03 AM,53.6,51.8,94,29.89,3.0,Calm,Calm,-,N/A,,Clear,0,2012-10-06 07:03:00
3:34 AM,53.6,51.8,94,29.87,1.8,Calm,Calm,-,N/A,,Clear,0,2012-10-06 07:34:00
3:41 AM,53.6,51.8,94,29.87,3.0,Calm,Calm,-,N/A,,Clear,0,2012-10-06 07:41:00
3:51 AM,53.6,51.8,94,29.87,4.0,Calm,Calm,-,N/A,,Partly Cloudy,0,2012-10-06 07:51:00
3:53 AM,53.1,52.0,96,29.87,4.0,Calm,Calm,-,N/A,,Partly Cloudy,0,2012-10-06 07:53:00
3:57 AM,53.6,51.8,94,29.87,1.8,Calm,Calm,-,N/A,,Scattered Clouds,0,2012-10-06 07:57:00
4:01 AM,53.6,51.8,94,29.87,0.8,Calm,Calm,-,N/A,,Mist,0,2012-10-06 08:01:00
4:14 AM,53.6,51.8,94,29.87,1.2,Calm,Calm,-,N/A,,Scattered Clouds,0,2012-10-06 08:14:00
4:25 AM,51.8,51.8,100,29.87,0.8,Calm,Calm,-,N/A,,Mist,0,2012-10-06 08:25:00
4:33 AM,51.8,51.8,100,29.87,0.5,Calm,Calm,-,N/A,Fog,Fog,0,2012-10-06 08:33:00
4:53 AM,52.0,51.1,97,29.86,0.8,Calm,Calm,-,N/A,,Mist,0,2012-10-06 08:53:00
4:55 AM,51.8,51.8,100,29.86,1.5,Calm,Calm,-,N/A,,Partly Cloudy,0,2012-10-06 08:55:00
4:57 AM,51.8,51.8,100,29.86,3.0,Calm,Calm,-,N/A,,Partly Cloudy,0,2012-10-06 08:57:00
5:53 AM,51.1,50.0,96,29.86,5.0,Calm,Calm,-,N/A,,Clear,0,2012-10-06 09:53:00
6:18 AM,51.8,51.8,100,29.85,2.5,Calm,Calm,-,N/A,,Clear,0,2012-10-06 10:18:00
6:26 AM,51.8,50.0,94,29.85,3.0,Calm,Calm,-,N/A,,Clear,0,2012-10-06 10:26:00
6:53 AM,51.1,50.0,96,29.85,4.0,Calm,Calm,-,N/A,,Clear,0,2012-10-06 10:53:00
6:59 AM,50.0,48.2,94,29.84,0.8,Calm,Calm,-,N/A,,Clear,0,2012-10-06 10:59:00
7:09 AM,51.8,48.2,88,29.84,2.0,Calm,Calm,-,N/A,,Clear,0,2012-10-06 11:09:00
7:18 AM,51.8,50.0,94,29.84,3.0,Calm,Calm,-,N/A,,Clear,0,2012-10-06 11:18:00
7:28 AM,51.8,50.0,94,29.84,2.0,Calm,Calm,-,N/A,,Clear,0,2012-10-06 11:28:00
7:39 AM,51.8,51.8,100,29.84,4.0,NW,3.5,23.0,N/A,,Clear,320,2012-10-06 11:39:00
7:53 AM,53.1,51.1,93,29.84,4.0,Calm,Calm,-,N/A,,Clear,0,2012-10-06 11:53:00
8:53 AM,57.9,57.0,97,29.84,2.5,Calm,Calm,-,N/A,,Clear,0,2012-10-06 12:53:00
9:03 AM,60.8,57.2,88,29.83,4.0,Calm,Calm,-,N/A,,Clear,0,2012-10-06 13:03:00
9:53 AM,66.9,61.0,81,29.82,6.0,Calm,Calm,-,N/A,,Haze,0,2012-10-06 13:53:00
10:53 AM,72.0,60.1,66,29.80,10.0,Variable,3.5,-,N/A,,Clear,0,2012-10-06 14:53:00
11:53 AM,73.0,59.0,61,29.79,10.0,Calm,Calm,-,N/A,,Mostly Cloudy,0,2012-10-06 15:53:00
12:53 PM,73.9,59.0,59,29.78,10.0,Calm,Calm,-,N/A,,Overcast,0,2012-10-06 16:53:00
1:53 PM,73.0,57.9,59,29.77,10.0,Calm,Calm,-,N/A,,Overcast,0,2012-10-06 17:53:00
2:53 PM,71.1,55.9,59,29.79,10.0,Variable,4.6,-,N/A,,Mostly Cloudy,0,2012-10-06 18:53:00
3:53 PM,68.0,55.0,63,29.82,10.0,NW,13.8,23.0,N/A,,Overcast,310,2012-10-06 19:53:00
4:53 PM,64.0,51.1,63,29.86,10.0,NW,11.5,18.4,N/A,,Overcast,310,2012-10-06 20:53:00
5:53 PM,62.1,48.0,60,29.88,10.0,NW,8.1,16.1,N/A,,Clear,320,2012-10-06 21:53:00
6:53 PM,57.9,46.0,65,29.91,10.0,NW,6.9,-,N/A,,Clear,320,2012-10-06 22:53:00
7:53 PM,54.0,46.0,75,29.94,10.0,Calm,Calm,-,N/A,,Clear,0,2012-10-06 23:53:00
8:53 PM,52.0,46.9,83,29.96,10.0,Calm,Calm,-,N/A,,Clear,0,2012-10-07 00:53:00
9:53 PM,50.0,46.9,89,29.98,10.0,NW,5.8,-,N/A,,Clear,310,2012-10-07 01:53:00
10:53 PM,48.9,46.0,90,29.99,10.0,NW,3.5,-,N/A,,Clear,320,2012-10-07 02:53:00
11:53 PM,44.6,44.6,100,29.99,10.0,Calm,Calm,-,N/A,,Clear,0,2012-10-07 03:53:00